Location: Newark
(51.3318°N, 0.0053°E)
Time: 16:14:16
(UTC+00:00)

DIWATA 2B (PO-101) - Pass Details

Date: 02 July 2022
Orbit: 583 x 599 km, 98.0° (Epoch: 07 August)

Event Time Altitude Azimuth Distance (km) Brightness Sun altitude
Exits shadow 00:11:11 - 115° (ESE) 2,843 ? -15.6°
Rises 00:11:11 0° 115° (ESE) 2,842 ? -15.6°
Reaches altitude 10° 00:14:06 10° 93° (E) 1,945 ? -15.6°
Maximum altitude 00:16:35 16° 57° (ENE) 1,617 ? -15.6°
Drops below altitude 10° 00:19:04 10° 21° (NNE) 1,952 ? -15.5°
Sets 00:21:59 0° 359° (N) 2,860 ? -15.5°
